User: anonymous   Login
Location: Brede
(50.9167°N, 0.6000°E)
Time: 21:15:07
(UTC+00:00)
Language:

Landsat 5 - Orbit

View from above orbital plane
View from above orbital plane
View from above satellite
View from above satellite

Ground track
Ground track

The orbit data is extracted from the following two-line orbital elements,

1 14780U 84021A   22019.52144975  .00000820  00000-0  79931-4 0  9999
2 14780  98.2053 211.0668 0090369  57.0838 303.9033 14.92537536550434
Epoch (UTC): 19 January 2022 12:30:53
Eccentricity: 0.0090369
inclination: 98.2053°
perigee height: 527 km
apogee height: 653 km
right ascension of ascending node: 211.0668°
argument of perigee: 57.0838°
revolutions per day: 14.92537536
mean anomaly at epoch: 303.9033°
orbit number at epoch: 55043

The dashed part of the orbit path shows where the satellite is in the earth's shadow,  

DLR